Weather History for Branson, MO

Change the Weather History Date:

Wednesday, January 30, 2013

  Actual Average (KHRO) Record (KHRO)
Temperature  
Mean Temperature 37 °F 38 °F  
Max Temperature 50 °F 48 °F 75 °F (1917)
Min Temperature 24 °F 27 °F -1 °F (1966)
Degree Days  
Heating Degree Days 28 27  
Month to date heating degree days 859  
Since 1 July heating degree days 2458  
Cooling Degree Days 0 0  
Month to date cooling degree days 0  
Year to date cooling degree days 0  
Moisture  
Dew Point 30 °F    
Average Humidity 80    
Maximum Humidity 100    
Minimum Humidity 64    
Precipitation  
Precipitation 0.00 in 0.08 in 3.41 in (1982)
Month to date precipitation 2.48  
Year to date precipitation 2.48  
Snow  
Snow 0.00 in 0.10 in 3.00 in (1914)
Month to date snowfall 4.1  
Since 1 July snowfall 5.9  
Snow Depth -    
Sea Level Pressure  
Sea Level Pressure 29.74 in    
Wind  
Wind Speed 9 mph (West)    
Max Wind Speed 21 mph    
Max Gust Speed 36 mph    
Visibility 9 miles    
Events Rain    
T = Trace of Precipitation, MM = Missing Value Source: NWS Daily Summary

Daily Weather History Graph

Daily Weather History Graph

Search for Another Location

Airport:

Trip Planner

Search our weather history database for the weather conditions in past years. The results will help you decide how hot, cold, wet, or windy it might be!

Date:

Astronomy

Jan. 30, 2013 Rise Set
Actual Time 7:15 AM CST 5:36 PM CST
Civil Twilight 6:48 AM CST 6:04 PM CST
Nautical Twilight 6:17 AM CST 6:35 PM CST
Astronomical Twilight 5:47 AM CST 7:05 PM CST
Moon 9:27 PM CST (1/30) 8:51 AM CST (1/30)
Length of Visible Light 11h 15m
Length of Day
10h 21m
Waning Gibbous, 87% of the Moon is Illuminated
Jan 30
Waning Gibbous
Feb 3
Last Quarter
Feb 10
New
Feb 17
First Quarter
Feb 25
Full

Hourly Weather History & Observations

Time (CST) Temp. Windchill Dew Point Humidity Pressure Visibility Wind Dir Wind Speed Gust Speed Precip Events Conditions
12:15 AM 50.0 °F - 48.2 °F 94% 29.48 in 10.0 mi ESE 12.7 mph - N/A   Overcast
12:35 AM 48.2 °F - 48.2 °F 100% 29.49 in 10.0 mi South 3.5 mph - N/A   Mostly Cloudy
12:55 AM 48.2 °F - 48.2 °F 100% 29.48 in 10.0 mi South 3.5 mph - N/A   Partly Cloudy
1:15 AM 48.2 °F - 48.2 °F 100% 29.47 in 10.0 mi SSW 3.5 mph - N/A   Clear
1:35 AM 48.2 °F - 46.4 °F 93% 29.47 in 10.0 mi Calm Calm - N/A   Clear
1:55 AM 46.4 °F 45.2 °F 46.4 °F 100% 29.47 in 10.0 mi SW 3.5 mph - N/A   Clear
2:15 AM 48.2 °F - 46.4 °F 93% 29.48 in 10.0 mi SW 4.6 mph - N/A   Mostly Cloudy
2:35 AM 46.4 °F 41.9 °F 46.4 °F 100% 29.49 in 10.0 mi WSW 9.2 mph - N/A   Overcast
2:55 AM 48.2 °F - 46.4 °F 93% 29.49 in 10.0 mi West 8.1 mph - N/A   Overcast
3:15 AM 46.4 °F 41.9 °F 44.6 °F 93% 29.51 in 10.0 mi West 9.2 mph 17.3 mph N/A   Overcast
3:35 AM 46.4 °F 41.5 °F 44.6 °F 93% 29.51 in 10.0 mi West 10.4 mph 17.3 mph N/A   Overcast
3:55 AM 44.6 °F 41.4 °F 41.0 °F 87% 29.52 in 10.0 mi West 5.8 mph - N/A   Overcast
4:15 AM 44.6 °F 39.7 °F 41.0 °F 87% 29.51 in 10.0 mi WNW 9.2 mph - N/A   Overcast
4:35 AM 41.0 °F 35.8 °F 39.2 °F 93% 29.52 in 4.0 mi West 8.1 mph 27.6 mph N/A Rain Light Rain
4:55 AM 41.0 °F 35.8 °F 39.2 °F 93% 29.52 in 5.0 mi WNW 8.1 mph 18.4 mph N/A   Overcast
5:15 AM 39.2 °F 31.6 °F 39.2 °F 100% 29.53 in 5.0 mi WNW 12.7 mph 17.3 mph N/A   Overcast
5:35 AM 39.2 °F 34.2 °F 37.4 °F 93% 29.55 in 5.0 mi West 6.9 mph - N/A   Overcast
7:45 AM 37.4 °F 30.8 °F 32.0 °F 81% 29.60 in 7.0 mi West 9.2 mph 16.1 mph N/A   Overcast
8:45 AM 35.6 °F 28.0 °F 30.2 °F 81% 29.63 in 8.0 mi West 10.4 mph 20.7 mph N/A   Overcast
9:45 AM 35.6 °F 26.2 °F 28.4 °F 75% 29.66 in 10.0 mi WNW 15.0 mph 26.5 mph N/A   Overcast
10:45 AM 32.0 °F 20.1 °F 24.8 °F 75% 29.70 in 10.0 mi WNW 19.6 mph 34.5 mph N/A   Overcast
11:56 AM 32.0 °F 19.8 °F 23.0 °F 69% 29.72 in 10.0 mi NW 20.7 mph 31.1 mph N/A   Overcast
12:50 PM 32.0 °F 20.1 °F 23.0 °F 69% 29.75 in 10.0 mi WNW 19.6 mph 32.2 mph N/A   Overcast
1:55 PM 30.2 °F 20.2 °F 23.0 °F 75% 29.78 in 10.0 mi WNW 12.7 mph 23.0 mph N/A   Overcast
2:45 PM 28.4 °F 18.0 °F 23.0 °F 80% 29.81 in 10.0 mi WNW 12.7 mph 26.5 mph N/A   Overcast
3:55 PM 28.4 °F 16.2 °F 23.0 °F 80% 29.86 in 10.0 mi West 17.3 mph 28.8 mph N/A   Overcast
4:50 PM 28.4 °F 17.0 °F 19.4 °F 69% 29.89 in 10.0 mi WSW 15.0 mph 25.3 mph N/A   Overcast
5:45 PM 28.4 °F 15.4 °F 19.4 °F 69% 29.91 in 10.0 mi West 19.6 mph 35.7 mph N/A   Overcast
6:45 PM 28.4 °F 18.5 °F 17.6 °F 64% 29.94 in 10.0 mi West 11.5 mph 23.0 mph N/A   Overcast
7:45 PM 28.4 °F 19.7 °F 17.6 °F 64% 29.97 in 10.0 mi West 9.2 mph 19.6 mph N/A   Overcast
7:55 PM 28.4 °F 19.1 °F 17.6 °F 64% 29.97 in 10.0 mi West 10.4 mph 20.7 mph N/A   Overcast
8:15 PM 28.4 °F 19.7 °F 17.6 °F 64% 29.98 in 10.0 mi West 9.2 mph 20.7 mph N/A   Overcast
8:35 PM 28.4 °F 20.4 °F 17.6 °F 64% 29.98 in 10.0 mi West 8.1 mph 18.4 mph N/A   Overcast
8:45 PM 28.4 °F 18.0 °F 17.6 °F 64% 29.99 in 10.0 mi WNW 12.7 mph 17.3 mph N/A   Overcast
8:55 PM 28.4 °F 20.4 °F 17.6 °F 64% 29.99 in 10.0 mi West 8.1 mph 17.3 mph N/A   Overcast
9:15 PM 26.6 °F 17.5 °F 17.6 °F 69% 30.00 in 10.0 mi West 9.2 mph 18.4 mph N/A   Overcast
9:35 PM 26.6 °F 16.8 °F 17.6 °F 69% 30.00 in 10.0 mi WNW 10.4 mph - N/A   Overcast
9:55 PM 26.6 °F 19.1 °F 17.6 °F 69% 30.00 in 10.0 mi West 6.9 mph 19.6 mph N/A   Overcast
10:15 PM 26.6 °F 21.2 °F 17.6 °F 69% 30.01 in 10.0 mi West 4.6 mph - N/A   Overcast
10:35 PM 26.6 °F 18.2 °F 17.6 °F 69% 30.02 in 10.0 mi West 8.1 mph - N/A   Overcast
10:55 PM 26.6 °F 20.0 °F 17.6 °F 69% 30.02 in 10.0 mi West 5.8 mph - N/A   Overcast
11:15 PM 24.8 °F 16.9 °F 17.6 °F 74% 30.03 in 10.0 mi West 6.9 mph - N/A   Overcast
11:35 PM 24.8 °F 20.5 °F 17.6 °F 74% 30.02 in 10.0 mi WNW 3.5 mph - N/A   Mostly Cloudy
11:55 PM 24.8 °F 17.9 °F 17.6 °F 74% 30.02 in 10.0 mi West 5.8 mph - N/A   Scattered Clouds